Weather History for Algona, IA

Change the Weather History Date:

Tuesday, January 31, 2012

  Actual Average Record
Temperature  
Mean Temperature 40 °F -  
Max Temperature 44 °F 25 °F 44 °F (2012)
Min Temperature 37 °F 11 °F -13 °F (2004)
Degree Days  
Heating Degree Days 24    
Moisture  
Dew Point 33 °F    
Average Humidity 74    
Maximum Humidity 93    
Minimum Humidity 65    
Precipitation  
Precipitation 0.00 in - - ()
Sea Level Pressure  
Sea Level Pressure 29.73 in    
Wind  
Wind Speed 14 mph (WSW)    
Max Wind Speed 18 mph    
Max Gust Speed 24 mph    
Visibility 10 miles    
Events      
Averages and records for this station are not official NWS values.
T = Trace of Precipitation, MM = Missing Value Source: NWS Daily Summary

Daily Weather History Graph

Daily Weather History Graph

Search for Another Location

Airport:

Trip Planner

Search our weather history database for the weather conditions in past years. The results will help you decide how hot, cold, wet, or windy it might be!

Date:

Astronomy

Jan. 31, 2012 Rise Set
Actual Time 7:33 AM CST 5:27 PM CST
Civil Twilight 7:03 AM CST 5:57 PM CST
Nautical Twilight 6:29 AM CST 6:32 PM CST
Astronomical Twilight 5:56 AM CST 7:05 PM CST
Moon 11:17 AM CST (1/31) 1:23 AM CST (1/31)
Length of Visible Light 10h 54m
Length of Day
9h 53m
First Quarter, 55% of the Moon is Illuminated
Jan 31
First Quarter
Feb 7
Full
Feb 14
Last Quarter
Feb 21
New
Feb 29
First Quarter

Hourly Weather History & Observations

Time (CST) Temp. Windchill Dew Point Humidity Pressure Visibility Wind Dir Wind Speed Gust Speed Precip Events Conditions
12:15 AM 37.4 °F 28.5 °F 28.4 °F 70% 29.63 in 10.0 mi SSW 15.0 mph - N/A   Clear
12:35 AM 39.2 °F 30.8 °F 28.4 °F 65% 29.63 in 10.0 mi SSW 15.0 mph - N/A   Clear
12:55 AM 39.2 °F 30.5 °F 28.4 °F 65% 29.63 in 10.0 mi SSW 16.1 mph - N/A   Clear
1:15 AM 39.2 °F 31.2 °F 30.2 °F 70% 29.62 in 10.0 mi SSW 13.8 mph - N/A   Clear
1:35 AM 41.0 °F 32.8 °F 30.2 °F 65% 29.63 in 10.0 mi SW 16.1 mph - N/A   Clear
1:55 AM 41.0 °F 32.2 °F 30.2 °F 65% 29.63 in 10.0 mi SW 18.4 mph - N/A   Clear
2:15 AM 39.2 °F 30.8 °F 30.2 °F 70% 29.63 in 10.0 mi SSW 15.0 mph - N/A   Clear
2:35 AM 39.2 °F 30.8 °F 30.2 °F 70% 29.63 in 10.0 mi SSW 15.0 mph - N/A   Clear
2:55 AM 41.0 °F 33.5 °F 30.2 °F 65% 29.64 in 10.0 mi SW 13.8 mph - N/A   Clear
3:15 AM 41.0 °F 33.1 °F 30.2 °F 65% 29.64 in 10.0 mi SW 15.0 mph 20.7 mph N/A   Clear
3:35 AM 41.0 °F 32.5 °F 30.2 °F 65% 29.64 in 10.0 mi SW 17.3 mph 24.2 mph N/A   Clear
3:55 AM 41.0 °F 32.8 °F 30.2 °F 65% 29.64 in 10.0 mi SW 16.1 mph 23.0 mph N/A   Clear
4:15 AM 39.2 °F 30.5 °F 30.2 °F 70% 29.64 in 10.0 mi SW 16.1 mph - N/A   Clear
4:35 AM 39.2 °F 31.6 °F 30.2 °F 70% 29.66 in 10.0 mi WSW 12.7 mph - N/A   Clear
4:55 AM 39.2 °F 32.0 °F 30.2 °F 70% 29.66 in 10.0 mi WSW 11.5 mph - N/A   Clear
5:15 AM 39.2 °F 32.0 °F 30.2 °F 70% 29.66 in 10.0 mi WSW 11.5 mph - N/A   Clear
5:35 AM 39.2 °F 33.0 °F 30.2 °F 70% 29.67 in 10.0 mi WSW 9.2 mph - N/A   Clear
5:55 AM 39.2 °F 33.6 °F 30.2 °F 70% 29.66 in 10.0 mi SW 8.1 mph - N/A   Clear
6:15 AM 37.4 °F 32.1 °F 30.2 °F 75% 29.66 in 10.0 mi SW 6.9 mph - N/A   Clear
6:35 AM 37.4 °F 30.8 °F 30.2 °F 75% 29.67 in 10.0 mi SW 9.2 mph - N/A   Clear
6:55 AM 37.4 °F 30.8 °F 30.2 °F 75% 29.68 in 10.0 mi SW 9.2 mph - N/A   Clear
7:15 AM 37.4 °F 29.8 °F 30.2 °F 75% 29.69 in 10.0 mi SW 11.5 mph - N/A   Clear
7:35 AM 37.4 °F 29.8 °F 30.2 °F 75% 29.69 in 10.0 mi SW 11.5 mph - N/A   Clear
7:55 AM 37.4 °F 30.8 °F 30.2 °F 75% 29.70 in 10.0 mi WSW 9.2 mph - N/A   Clear
8:15 AM 37.4 °F 29.3 °F 30.2 °F 75% 29.71 in 10.0 mi SW 12.7 mph - N/A   Clear
8:35 AM 37.4 °F 30.8 °F 30.2 °F 75% 29.71 in 10.0 mi SW 9.2 mph - N/A   Clear
8:55 AM 37.4 °F 29.3 °F 30.2 °F 75% 29.71 in 10.0 mi West 12.7 mph - N/A   Clear
9:15 AM 37.4 °F 29.3 °F 30.2 °F 75% 29.72 in 10.0 mi West 12.7 mph - N/A   Clear
9:35 AM 37.4 °F 29.3 °F 32.0 °F 81% 29.72 in 10.0 mi West 12.7 mph - N/A   Clear
9:55 AM 37.4 °F 28.9 °F 32.0 °F 81% 29.73 in 10.0 mi West 13.8 mph - N/A   Clear
10:15 AM 39.2 °F 31.6 °F 30.2 °F 70% 29.74 in 10.0 mi West 12.7 mph - N/A   Clear
10:35 AM 39.2 °F 33.0 °F 32.0 °F 75% 29.75 in 10.0 mi West 9.2 mph - N/A   Clear
10:55 AM 39.2 °F 31.2 °F 32.0 °F 75% 29.76 in 10.0 mi West 13.8 mph - N/A   Clear
11:15 AM 39.2 °F 31.2 °F 32.0 °F 75% 29.77 in 10.0 mi West 13.8 mph - N/A   Clear
11:35 AM 39.2 °F 30.8 °F 33.8 °F 81% 29.77 in 10.0 mi West 15.0 mph - N/A   Clear
11:55 AM 41.0 °F 32.2 °F 33.8 °F 76% 29.77 in 10.0 mi West 18.4 mph - N/A   Clear
12:15 PM 42.8 °F 36.2 °F 33.8 °F 70% 29.77 in 10.0 mi West 12.7 mph 16.1 mph N/A   Scattered Clouds
12:35 PM 42.8 °F 35.4 °F 35.6 °F 76% 29.77 in 10.0 mi West 15.0 mph - N/A   Scattered Clouds
12:55 PM 44.6 °F 37.8 °F 35.6 °F 71% 29.77 in 10.0 mi West 15.0 mph - N/A   Scattered Clouds
1:15 PM 44.6 °F 37.8 °F 37.4 °F 76% 29.77 in 10.0 mi West 15.0 mph - N/A   Clear
1:35 PM 44.6 °F 37.4 °F 35.6 °F 71% 29.77 in 10.0 mi West 16.1 mph - N/A   Clear
1:55 PM 44.6 °F 36.9 °F 35.6 °F 71% 29.78 in 10.0 mi West 18.4 mph - N/A   Clear
2:15 PM 44.6 °F 37.2 °F 37.4 °F 76% 29.78 in 10.0 mi West 17.3 mph 21.9 mph N/A   Clear
2:35 PM 44.6 °F 38.4 °F 37.4 °F 76% 29.79 in 10.0 mi West 12.7 mph - N/A   Clear
2:55 PM 44.6 °F 38.1 °F 37.4 °F 76% 29.80 in 10.0 mi WNW 13.8 mph 19.6 mph N/A   Clear
3:15 PM 44.6 °F 37.8 °F 37.4 °F 76% 29.81 in 10.0 mi West 15.0 mph - N/A   Clear
3:35 PM 44.6 °F 38.4 °F 37.4 °F 76% 29.81 in 10.0 mi West 12.7 mph - N/A   Clear
3:55 PM 44.6 °F 38.8 °F 37.4 °F 76% 29.83 in 10.0 mi West 11.5 mph - N/A   Clear
4:15 PM 44.6 °F 40.7 °F 37.4 °F 76% 29.83 in 10.0 mi West 6.9 mph - N/A   Clear
4:35 PM 44.6 °F 39.2 °F 37.4 °F 76% 29.84 in 10.0 mi West 10.4 mph - N/A   Clear
4:55 PM 42.8 °F 37.0 °F 37.4 °F 81% 29.85 in 10.0 mi West 10.4 mph - N/A   Clear
5:15 PM 41.0 °F 34.7 °F 37.4 °F 87% 29.87 in 10.0 mi West 10.4 mph - N/A   Clear
5:35 PM 39.2 °F 31.6 °F 35.6 °F 87% 29.88 in 10.0 mi West 12.7 mph - N/A   Clear
5:55 PM 39.2 °F 32.5 °F 35.6 °F 87% 29.89 in 10.0 mi West 10.4 mph - N/A   Clear
6:15 PM 37.4 °F 30.8 °F 35.6 °F 93% 29.90 in 10.0 mi West 9.2 mph - N/A   Clear
6:35 PM 37.4 °F 30.8 °F 35.6 °F 93% 29.91 in 10.0 mi West 9.2 mph - N/A   Clear
6:55 PM 35.6 °F 29.9 °F 33.8 °F 93% 29.91 in 10.0 mi West 6.9 mph - N/A   Clear
7:15 PM 35.6 °F 29.2 °F 33.8 °F 93% 29.93 in 10.0 mi WSW 8.1 mph - N/A   Clear
7:35 PM 35.6 °F 28.6 °F 33.8 °F 93% 29.94 in 10.0 mi WSW 9.2 mph - N/A   Clear
7:55 PM 35.6 °F 28.6 °F 35.6 °F 100% 29.94 in 10.0 mi West 9.2 mph - N/A   Clear
8:15 PM 35.6 °F 30.7 °F 35.6 °F 100% 29.95 in 10.0 mi NW 5.8 mph - N/A   Clear
8:35 PM 35.6 °F 31.7 °F 33.8 °F 93% 29.96 in 10.0 mi NW 4.6 mph - N/A   Clear
8:55 PM 35.6 °F 31.7 °F 33.8 °F 93% 29.96 in 10.0 mi NW 4.6 mph - N/A   Clear
9:15 PM 33.8 °F 28.6 °F 33.8 °F 100% 29.97 in 10.0 mi NW 5.8 mph - N/A   Clear
9:35 PM 33.8 °F 29.6 °F 33.8 °F 100% 29.97 in 10.0 mi NW 4.6 mph - N/A   Clear
9:55 PM 33.8 °F 30.8 °F 33.8 °F 100% 29.98 in 10.0 mi NW 3.5 mph - N/A   Clear
10:15 PM 33.8 °F 29.6 °F 33.8 °F 100% 29.98 in 10.0 mi NW 4.6 mph - N/A   Clear
10:35 PM 33.8 °F 30.8 °F 33.8 °F 100% 29.98 in 7.0 mi NW 3.5 mph - N/A   Clear
11:15 PM 30.2 °F 25.4 °F 30.2 °F 100% 30.00 in 5.0 mi WNW 4.6 mph - N/A   Clear
11:35 PM 32.0 °F 28.7 °F 32.0 °F 100% 30.00 in 7.0 mi NW 3.5 mph - N/A   Clear
11:55 PM 32.0 °F 28.7 °F 32.0 °F 100% 30.01 in 7.0 mi WNW 3.5 mph - N/A   Clear